sat.trackr.live / text

‹ back to catalog

WT 1B

NORAD 44316 · 2019-032G

PAYLOAD ACTIVE UNKNOWN

§ Identity

Operator
Country
PRC
Launch date
2019-06-05
Launch site
YSLA
Launch vehicle
Mass (kg)
RCS (m²)

External: N2YO · Heavens-Above · Gunter

§ Orbital elements

Epoch: 2026-05-25T04:06:32.556096Z

Period
94.32 min
Inclination
44.9732°
Eccentricity
0.0007574
Mean motion
15.26674777 rev/d
Perigee alt
480.6 km
Apogee alt
491.0 km
Semi-major
6,863.9 km
B*
2.8502e-4
RAAN
186.5238°
Arg perigee
121.2816°
Mean anomaly
238.8809°
Rev number
38,356

§ Raw data

WT 1B1 44316U 19032G   26145.17121014  .00007337  00000+0  28502-3 0  99972 44316  44.9732 186.5238 0007574 121.2816 238.8809 15.26674777383561

JSON: /api/v1/satellites/44316 · /tle

For live sub-satellite position, see the globe view (requires WebGL).

§ Visibility from observer

Set your observer location to see the next 7 days of passes ≥ 10°. The values pass through the URL so the page stays shareable.

No JS? Fill the form by hand. The geolocation button needs JavaScript.

§ Radio — SatNOGS DB

ModeDescriptionDownlinkUplink
FM Downlink 401.305 MHz

1 transmitter · refreshed weekly from db.satnogs.org